Tracking 18624 objects as of 26-April-2017
HD Live streaming from Space Station
objects crossing your sky now

COSMOS 2286

Track COSMOS 2286 now!
COSMOS 2286 is classified as:


NORAD ID: 23194
Int'l Code: 1994-048A
Perigee: 3,778.1 km
Apogee: 36,700.4 km
Inclination: 67.7 °
Period: 720.0 minutes
Semi major axis: 26610 km
RCS: 14.1879 m2 (large)
Launch date: August 5, 1994
Source: Commonwealth of Independent States (former USSR) (CIS)
Launch site: PLESETSK MISSILE AND SPACE COMPLEX (PKMTR)
Your satellite tracking list
Your tracking list is empty





NASA's NSSDC Master Catalog

Two Line Element Set (TLE):
1 23194U 94048A   17114.30237589 -.00000715 +00000-0 +00000-0 0  9999
2 23194 067.7322 014.4569 6186022 182.3083 172.3514 02.00512854166459
Source of the keplerian elements: AFSPC